Theta_e
340 341 341 340 339 340 336 333 333 330 328 328 327 327 330 333 337 338 338 338 333 330 332 333 336 338 336 335 334 331 330 329 327 324 326 330 333 335 332 329 328 327 326 325 325 325 324 325 327 328 325 323 321 323 330 332 329 327 330 331 330 331
336 339 341 341 339 340 338 333 335 333 329 329 327 325 326 329 334 337 338 335 331 329 333 335 335 337 337 337 335 330 328 325 323 321 320 324 328 332 332 329 328 326 325 325 326 327 325 325 326 327 325 321 320 326 332 331 328 330 330 328 328 331
336 337 339 341 339 340 339 335 337 337 332 330 328 326 326 329 334 338 337 335 334 333 334 336 337 338 338 338 335 330 326 322 323 320 316 320 323 327 330 329 328 325 326 327 328 330 329 326 324 327 324 320 325 332 332 329 328 331 329 329 330 330
334 336 337 339 338 339 340 336 337 338 336 332 331 332 331 333 336 337 337 336 336 337 335 336 337 338 338 338 336 330 324 322 324 320 316 320 322 323 325 326 327 325 327 328 330 332 333 330 323 322 320 321 331 334 333 328 327 330 330 331 329 329
329 333 336 337 336 337 338 337 337 338 337 335 334 336 337 337 337 335 337 336 335 337 335 335 337 337 337 338 336 331 325 323 325 323 320 321 323 322 321 324 327 326 328 330 331 331 333 333 328 324 322 327 333 333 333 329 327 331 331 330 329 328
326 327 333 335 334 333 337 339 339 338 337 336 336 336 338 338 337 336 337 336 335 336 336 336 337 336 337 336 334 332 327 326 325 324 323 325 326 323 323 326 326 327 330 331 331 329 331 334 333 331 329 331 333 332 332 329 328 332 332 330 330 330
325 325 328 333 334 333 335 337 337 339 337 336 337 337 337 336 336 336 337 336 335 338 338 336 336 336 335 335 335 333 331 330 329 327 326 330 331 325 326 329 328 329 330 331 328 326 330 333 334 334 333 332 332 332 331 330 330 333 333 332 332 331
322 324 325 328 331 332 334 334 335 338 339 337 337 336 336 337 336 337 338 338 337 339 338 337 336 336 335 336 336 334 331 333 334 331 328 331 333 328 329 331 329 330 330 329 328 325 327 331 333 333 334 333 331 331 330 331 331 331 332 333 332 331
321 321 323 325 328 330 331 332 333 335 336 337 338 337 336 337 337 338 339 339 339 339 338 338 336 335 335 335 335 334 333 335 335 334 329 330 333 330 330 333 330 331 330 328 327 326 326 328 331 332 333 333 331 331 330 331 332 331 331 333 332 330
321 321 320 324 327 328 327 329 330 330 331 331 333 337 338 337 336 337 338 339 339 339 339 338 337 335 336 335 335 335 335 336 336 336 332 331 333 332 332 333 331 330 330 329 327 327 326 328 329 331 333 333 332 332 331 331 331 331 331 333 333 332
320 322 321 323 325 325 325 326 326 328 329 324 322 328 331 333 335 335 336 338 338 338 338 338 337 337 336 335 335 335 336 336 337 337 335 333 333 334 333 333 332 331 330 328 329 328 327 328 329 330 331 332 333 332 332 332 331 331 331 333 334 332
318 320 321 321 322 323 324 324 324 326 326 323 322 322 323 326 331 335 336 336 336 336 337 337 336 336 337 336 336 336 337 337 336 336 337 335 334 334 335 334 333 333 332 329 330 329 327 328 329 330 330 331 332 333 332 332 331 331 330 331 333 332
317 318 319 320 319 320 321 322 323 324 323 325 326 324 323 323 322 326 329 332 334 333 334 336 336 335 336 337 337 337 337 337 336 336 338 336 335 335 335 334 334 333 332 331 330 331 329 329 330 330 330 330 331 332 332 332 332 331 330 330 332 333
316 316 317 317 316 317 319 319 320 321 319 323 326 324 324 324 320 317 317 321 327 328 329 335 337 335 336 337 338 338 337 338 337 337 338 337 336 336 334 334 333 332 332 331 329 330 331 330 330 330 330 330 330 331 332 331 332 331 331 330 331 334
315 315 316 316 316 317 318 316 317 318 318 320 323 324 325 324 324 323 319 318 322 326 327 328 331 334 336 337 338 338 337 337 337 337 336 335 336 335 335 337 334 332 333 331 329 330 330 331 331 330 329 329 329 330 331 331 331 332 332 331 329 332
314 315 316 317 317 318 318 317 317 318 319 319 319 321 324 322 322 325 324 323 325 327 326 325 329 334 335 337 337 337 338 337 336 336 335 334 337 336 336 338 335 333 334 332 330 330 329 330 331 331 330 329 328 328 330 331 331 332 332 332 330 330
316 317 318 318 319 319 319 319 319 320 319 319 318 317 318 318 321 324 324 325 327 326 326 328 331 334 334 334 336 336 336 336 335 336 335 334 336 336 337 338 336 333 333 333 331 330 330 330 330 330 330 329 328 327 328 330 331 332 332 332 331 330
318 319 319 319 320 319 319 319 320 320 318 319 320 317 315 318 320 322 323 326 327 325 327 329 329 331 331 331 334 335 335 337 336 335 335 336 337 337 337 337 336 334 334 333 332 330 330 330 330 330 329 328 327 327 327 328 330 331 331 332 332 331
320 320 319 319 320 320 319 318 317 317 316 317 319 318 319 319 317 320 323 325 325 323 326 328 328 329 329 329 329 328 329 331 332 334 334 335 337 339 338 336 337 336 336 335 332 331 331 331 331 330 329 327 327 327 326 327 329 330 330 331 332 331
321 320 319 319 320 321 318 315 313 314 313 314 315 317 321 319 317 321 323 323 324 324 325 325 325 327 328 328 328 326 323 322 323 328 331 335 337 337 338 338 338 337 336 336 334 333 333 333 333 332 329 327 327 326 326 327 328 329 330 331 331 331
321 319 318 318 317 316 315 314 313 312 313 313 311 315 320 318 317 320 320 321 322 323 324 322 322 325 325 325 326 327 327 326 323 323 326 330 334 337 338 338 338 337 336 335 334 334 333 333 334 334 330 326 325 326 326 328 328 328 328 330 330 330
321 318 318 318 315 314 313 314 314 312 312 314 312 313 316 316 316 319 320 320 320 321 321 320 322 323 323 322 323 325 327 328 328 328 326 324 327 333 336 338 337 337 338 336 335 333 331 333 335 335 332 329 327 326 328 328 329 328 327 329 330 329
323 319 318 317 317 315 313 313 315 313 312 314 317 317 318 317 317 317 318 318 319 319 319 318 319 321 322 323 323 324 324 326 329 331 331 328 326 328 331 335 336 336 337 337 336 335 332 333 335 334 333 332 330 331 332 330 329 329 328 329 330 329
323 320 318 318 318 317 313 312 315 316 314 316 318 318 318 316 315 316 317 317 317 317 317 316 317 319 320 321 322 324 325 325 327 328 330 331 331 329 329 331 333 335 336 336 337 337 335 334 334 334 335 334 332 332 334 332 330 329 329 329 329 329
323 322 318 317 318 314 312 314 317 319 320 319 316 314 313 313 314 315 316 317 317 316 316 317 318 318 319 320 321 323 324 325 326 327 328 330 331 331 331 331 331 332 335 336 336 336 335 334 333 334 335 335 336 334 334 331 331 332 330 329 330 329
322 323 319 316 316 314 315 320 322 321 321 320 315 312 312 313 314 314 314 316 317 317 317 316 317 318 319 319 320 321 322 323 324 325 327 327 328 329 331 331 331 330 331 334 335 335 335 334 333 333 333 333 335 334 333 331 332 336 334 330 330 330
323 323 320 316 316 318 319 320 319 318 316 315 314 314 315 315 314 314 315 315 316 317 318 317 318 318 319 320 320 320 321 322 323 324 324 325 326 327 328 330 331 331 329 330 333 335 335 334 334 332 331 331 332 331 331 330 330 333 335 334 331 329
323 323 321 318 316 318 319 317 315 315 314 314 314 315 315 315 314 314 316 316 316 318 318 317 318 319 318 319 319 320 320 321 321 322 323 324 324 325 326 327 329 331 332 331 332 334 334 334 333 332 331 330 329 329 329 330 329 328 330 333 332 331
323 323 322 319 316 317 318 318 316 316 315 315 314 315 315 315 314 314 316 316 317 317 318 317 318 318 318 319 319 319 320 320 321 321 322 322 323 323 324 325 326 328 331 333 332 333 334 333 333 332 331 330 328 328 328 329 329 328 327 328 330 332
323 322 322 320 316 316 318 319 317 317 316 315 315 315 314 314 314 315 315 316 316 317 318 318 318 317 317 317 318 318 318 319 319 320 321 321 321 322 322 323 325 325 327 330 332 333 333 333 333 332 331 330 329 329 329 329 329 328 328 328 329 330
323 322 322 321 317 315 317 317 316 316 317 315 315 314 314 314 315 315 315 315 315 315 316 317 317 317 317 317 317 318 317 316 316 317 319 320 320 320 321 322 323 324 324 326 329 331 333 333 333 332 332 331 330 330 329 329 328 328 329 329 331 333
324 322 323 321 318 317 316 315 316 317 316 316 316 315 314 316 316 315 314 315 315 314 315 315 316 316 316 317 316 316 317 316 317 317 318 319 319 320 321 321 321 323 324 324 325 328 331 333 332 332 331 331 331 330 330 329 329 328 329 329 332 335
325 323 323 322 319 319 317 315 317 318 317 317 316 315 315 315 315 315 315 315 314 313 314 314 315 314 315 315 315 315 316 316 316 317 318 318 319 319 320 320 320 321 321 323 323 325 328 331 331 331 331 330 331 330 330 329 329 329 330 330 332 335
326 324 324 322 320 320 318 316 317 318 317 317 316 316 315 314 315 314 313 314 314 313 313 313 313 314 314 314 314 314 314 313 313 314 316 317 318 317 318 318 319 320 320 321 322 323 324 327 329 330 330 330 330 330 330 329 329 329 329 330 332 333
326 324 324 323 321 320 319 317 317 317 316 316 315 315 314 313 314 314 313 313 313 313 313 312 312 313 314 314 314 313 312 312 313 313 313 315 316 316 317 317 318 319 319 319 320 321 322 324 325 327 329 330 330 330 330 329 329 329 329 328 329 329
325 325 324 323 321 320 319 318 317 316 315 314 314 314 313 312 313 314 313 313 313 313 313 312 313 313 313 313 313 313 313 313 313 313 313 313 314 315 315 316 317 317 318 318 320 320 321 322 323 324 326 328 329 330 330 330 329 329 329 328 328 328
325 325 324 323 321 320 319 318 317 316 314 314 313 313 312 312 312 313 313 313 313 313 313 313 313 313 313 314 313 313 313 312 312 311 311 312 312 313 313 314 316 316 317 318 319 320 320 321 322 323 324 325 328 329 329 330 330 329 329 329 329 328
Wind_Speed
5 4 3 4 4 6 7 7 6 7 8 8 8 8 9 10 11 12 12 12 11 9 10 11 13 15 15 15 14 12 12 12 10 7 6 5 5 5 7 7 8 9 9 8 7 7 6 7 7 7 6 8 12 8 8 8 8 9 10 9 6 5
5 4 3 2 3 4 5 7 6 7 9 9 9 9 9 10 11 12 12 12 11 9 9 10 12 14 15 16 16 13 13 12 9 7 6 5 5 6 7 8 9 9 8 8 7 7 6 6 7 8 5 6 11 8 8 3 4 7 7 8 7 5
6 4 4 2 2 2 3 7 7 7 9 10 10 10 11 11 11 12 13 12 10 10 11 11 10 11 13 15 16 15 13 12 10 8 8 7 6 6 6 7 9 9 8 8 8 7 6 6 8 9 7 8 10 8 5 4 4 6 6 8 7 5
6 4 4 3 2 3 3 6 7 6 9 10 10 10 11 11 11 11 12 12 10 11 12 11 9 9 10 12 14 15 14 12 11 10 10 9 8 7 6 7 9 10 9 9 9 10 9 7 8 9 9 9 8 6 6 6 4 5 7 8 7 4
4 4 3 2 0 2 4 4 5 7 9 10 11 12 11 11 11 11 11 11 9 10 11 11 10 10 11 12 12 14 14 13 12 11 12 11 10 10 10 10 10 10 10 11 11 12 13 10 7 6 8 8 5 5 6 6 5 4 8 7 5 4
3 3 2 2 1 2 6 5 5 6 9 11 11 13 14 12 10 11 10 9 9 8 9 10 11 13 14 14 14 14 14 14 14 14 14 13 12 13 14 13 12 10 10 12 12 12 12 10 8 5 5 5 4 6 7 6 5 4 7 7 5 5
4 3 1 1 5 5 3 6 6 5 7 11 12 12 14 11 8 11 11 9 10 7 7 9 10 14 14 14 16 16 15 14 16 17 17 15 14 15 16 15 14 11 9 11 10 11 10 9 8 6 7 6 5 7 8 7 6 5 6 6 6 5
5 3 3 4 4 5 4 2 2 3 6 9 10 10 13 12 8 9 9 9 10 7 7 9 10 13 14 15 17 18 18 17 17 19 18 17 17 17 17 17 16 13 11 9 7 9 9 9 8 7 8 7 6 6 7 8 7 7 7 6 5 3
5 3 2 4 3 4 6 6 5 2 2 5 7 8 9 9 7 7 5 6 9 8 6 7 10 13 15 16 17 18 19 19 19 19 20 20 19 19 19 18 16 14 13 10 7 7 7 9 9 8 8 8 8 6 6 7 7 8 9 7 6 5
4 4 3 3 5 5 5 5 5 3 2 0 4 8 6 4 4 4 3 3 5 6 4 6 11 14 15 14 15 18 19 20 22 21 21 22 20 19 18 17 16 13 12 10 9 8 7 8 10 10 9 8 8 7 7 9 8 7 9 9 8 7
5 6 5 4 6 5 4 5 4 4 5 4 1 4 6 5 3 2 3 3 4 4 3 5 9 11 14 12 11 17 20 21 24 23 21 21 21 20 18 17 16 12 10 10 10 11 9 7 8 8 9 9 9 8 8 9 9 8 9 10 10 8
6 6 7 6 6 5 4 5 4 5 5 4 4 2 2 2 3 3 2 2 3 4 3 5 7 8 11 13 12 13 18 21 25 23 21 20 19 18 18 17 15 13 11 10 8 10 9 7 7 7 8 10 10 9 9 9 9 9 9 11 11 10
8 7 8 7 6 5 5 5 5 5 5 4 3 1 1 2 1 5 5 1 2 3 3 5 7 6 8 11 11 9 11 16 21 22 22 19 16 14 15 15 14 14 12 10 8 7 7 7 7 7 8 9 11 11 9 9 10 10 11 11 11 11
9 9 8 8 7 6 5 5 6 5 4 4 3 2 1 3 5 2 4 2 2 3 3 3 4 5 6 6 7 7 5 6 12 17 19 17 14 12 13 13 15 14 11 9 8 7 6 7 7 7 8 10 11 13 12 10 11 12 12 12 11 11
10 10 9 9 8 8 7 8 8 5 4 5 2 2 2 3 4 4 4 3 1 2 3 4 5 5 7 6 5 5 4 3 5 9 13 15 13 13 12 10 11 11 10 10 8 8 7 7 7 7 9 11 11 12 14 13 12 12 13 13 13 12
11 10 10 9 9 8 8 8 8 6 5 5 3 2 2 2 1 2 5 4 1 3 5 3 4 5 5 5 5 6 6 5 4 5 9 12 12 12 9 8 9 9 9 10 7 7 8 8 8 8 8 11 12 11 12 14 13 12 12 13 15 14
10 10 8 8 8 8 8 7 6 6 5 5 5 3 2 1 1 1 3 3 4 5 6 4 2 2 3 3 5 6 6 5 4 6 7 8 10 11 8 7 10 9 8 8 7 8 9 10 10 11 10 10 12 13 12 14 14 14 14 14 15 15
10 9 8 7 7 7 8 7 6 7 6 4 5 5 3 1 2 1 2 3 4 5 5 4 4 2 2 2 2 4 4 4 6 8 9 8 8 9 9 9 10 11 10 9 9 10 9 8 9 11 13 12 11 12 14 13 14 16 16 16 16 16
10 9 7 7 8 9 9 8 6 6 6 5 5 5 4 3 3 2 3 4 5 5 5 4 5 4 2 2 1 3 5 7 10 11 12 11 9 9 10 10 10 12 12 11 11 11 10 9 12 12 12 14 13 14 15 15 15 17 18 17 17 18
10 9 7 6 8 8 8 7 6 5 6 7 6 4 4 4 4 3 4 4 3 4 5 4 4 4 3 3 3 4 5 6 10 12 13 14 12 10 10 10 11 13 14 13 12 13 10 9 14 15 9 13 11 13 15 16 16 17 18 19 18 18
11 10 7 5 5 4 5 6 6 5 5 8 8 6 6 5 3 2 2 1 1 2 4 5 5 4 4 3 3 3 5 7 7 9 10 13 15 14 12 11 13 15 16 15 15 14 11 9 12 12 7 10 10 12 14 16 18 18 19 19 20 19
12 9 6 5 7 5 4 5 6 5 4 6 8 7 6 4 3 1 2 1 1 1 2 3 4 4 5 5 4 3 3 5 7 9 8 9 12 15 16 14 14 16 17 18 18 18 16 12 9 8 5 5 7 10 13 17 19 19 19 19 20 19
13 11 8 8 8 7 7 6 7 5 4 6 5 5 6 4 4 3 2 2 1 1 1 2 2 3 4 3 4 5 3 4 6 7 7 6 7 11 15 17 18 18 17 16 17 17 18 16 12 9 7 4 4 6 8 14 18 20 21 20 20 20
14 13 11 10 10 10 9 7 7 5 4 6 5 4 6 5 4 3 2 1 0 1 2 3 2 2 3 3 4 5 5 5 6 6 6 6 5 7 10 14 20 22 19 16 16 15 15 18 16 11 5 2 3 3 4 8 14 19 22 21 20 21
16 15 13 12 11 11 9 7 6 5 4 6 7 6 5 4 4 3 2 1 2 2 2 3 3 2 2 4 4 4 5 6 6 6 6 6 6 6 7 9 15 22 23 20 20 17 15 18 20 17 11 4 2 2 1 3 7 13 19 21 20 20
17 15 15 15 12 10 8 8 8 7 7 7 7 8 5 4 4 2 2 2 2 2 2 3 3 3 3 4 4 5 6 6 6 7 7 7 7 7 8 9 11 17 22 24 24 20 17 19 20 20 20 16 10 6 3 6 6 4 11 19 19 19
18 16 16 16 14 11 10 9 9 6 5 4 7 8 5 4 4 2 1 2 1 1 3 3 2 3 4 4 5 5 6 7 7 8 7 8 8 8 8 9 11 14 18 23 25 23 20 20 18 19 23 23 21 18 12 8 7 3 3 10 15 18
19 17 17 17 16 13 12 11 9 6 5 4 6 7 6 4 4 3 2 0 1 1 2 2 1 3 4 4 5 6 6 7 8 9 9 8 8 8 9 9 10 13 16 20 24 25 24 21 19 20 24 26 24 24 21 16 13 9 4 2 8 14
20 18 19 18 17 15 13 12 10 8 7 6 6 6 7 6 4 4 3 1 0 1 1 1 1 2 3 4 5 6 7 7 7 8 9 9 10 9 9 10 11 12 14 18 21 24 24 23 23 21 21 24 25 25 25 24 20 14 9 5 3 5
20 19 19 18 18 16 13 13 12 10 9 8 8 7 7 7 6 4 4 3 1 1 0 1 2 2 2 2 4 6 8 8 8 9 9 9 10 11 11 11 13 14 14 15 17 21 23 24 24 23 21 21 23 22 20 19 19 16 12 9 5 4
21 19 20 19 18 17 15 14 13 11 10 9 9 8 7 7 7 6 5 4 3 2 2 2 2 2 2 2 3 5 6 8 8 9 10 8 9 11 12 12 13 14 15 15 16 18 23 25 24 24 23 23 24 23 20 17 18 17 12 9 7 6
21 20 20 20 19 18 17 15 13 12 12 11 10 9 8 8 8 7 5 5 4 4 3 3 3 3 3 3 4 5 6 7 7 8 9 10 10 11 12 13 13 14 15 15 16 17 19 23 25 26 25 25 25 25 25 23 22 20 17 15 10 6
22 21 21 21 19 18 17 16 14 14 14 13 12 10 9 8 8 8 7 6 5 4 4 4 4 4 4 4 5 5 6 7 8 9 10 11 12 13 14 15 14 14 16 16 16 16 17 18 23 27 27 26 26 26 27 27 26 22 19 17 12 7
22 22 21 21 20 18 17 16 15 15 14 14 13 11 10 9 9 8 7 7 6 6 5 5 5 6 6 6 6 7 8 10 10 11 12 12 13 14 15 15 15 15 16 16 17 17 18 18 20 24 26 26 26 27 28 28 27 25 23 19 15 10
22 23 21 20 20 18 17 16 15 15 14 14 13 12 11 10 10 9 8 7 7 7 7 6 6 7 7 7 8 9 10 11 11 12 12 13 13 13 14 14 15 16 17 18 18 19 19 19 19 20 23 25 26 28 30 31 30 29 28 25 22 18
22 23 22 21 20 18 17 16 16 15 15 14 13 12 12 11 10 10 9 8 8 8 8 7 7 7 7 8 9 9 10 10 11 11 12 13 14 14 14 14 14 16 17 18 19 20 20 20 20 20 22 24 27 28 29 32 33 33 33 32 29 27
22 22 23 22 20 19 17 17 16 16 16 15 14 13 12 12 11 11 10 9 9 8 8 8 8 8 8 8 8 9 10 11 11 12 12 13 14 14 14 14 14 15 16 17 19 20 20 20 21 22 23 24 26 29 30 30 32 34 35 36 34 33
Wind_Direction
154 169 183 191 186 189 191 173 165 165 166 173 181 191 188 189 195 194 190 184 180 183 191 198 201 194 190 190 185 183 180 179 175 174 188 194 191 162 156 162 163 161 155 158 167 170 174 171 155 148 153 156 170 156 70 62 80 102 136 143 138 125
138 156 167 186 199 198 198 171 166 177 180 183 186 196 193 191 199 196 188 184 182 189 201 201 202 194 184 185 182 178 177 175 175 176 183 191 192 169 159 168 170 168 166 164 167 171 172 178 171 163 169 160 163 139 73 83 114 96 131 145 137 125
106 111 138 155 188 170 195 174 170 188 195 195 188 197 200 193 197 198 194 193 187 191 204 203 203 194 175 179 182 178 179 175 174 177 178 178 182 175 165 176 181 177 179 177 170 175 172 165 171 175 183 170 153 129 118 178 122 99 154 156 139 120
93 94 134 169 171 148 187 185 179 194 203 203 196 200 208 206 202 199 199 198 197 201 209 207 208 202 178 180 182 177 179 177 175 176 177 172 171 173 167 180 191 191 194 195 186 183 179 165 163 173 182 172 150 139 167 189 137 126 168 152 135 126
77 92 119 129 114 158 174 179 191 203 204 203 204 207 210 214 210 205 205 200 201 213 223 219 211 207 194 187 182 179 180 182 180 178 181 174 170 170 165 173 185 197 203 213 215 194 184 179 163 157 169 167 161 166 169 181 171 173 182 158 137 145
58 76 117 151 107 139 172 187 203 204 207 203 207 215 210 214 222 211 206 206 206 207 216 222 215 206 199 191 192 191 186 190 191 185 186 180 180 175 168 172 179 196 212 230 229 192 178 176 164 157 166 175 206 193 168 170 177 177 187 169 139 139
64 61 22 149 123 110 160 206 205 198 205 205 209 217 213 218 233 212 198 207 215 200 193 214 218 209 204 198 200 200 191 196 204 197 188 183 191 183 174 182 188 194 207 232 220 173 172 171 166 181 184 192 211 191 170 175 185 171 178 163 141 136
69 57 16 39 113 106 69 118 174 199 195 200 207 211 217 225 233 217 193 195 211 202 196 212 212 208 211 211 208 206 200 199 207 206 192 186 197 190 183 194 198 196 193 210 199 165 181 184 179 190 188 196 198 190 177 181 190 180 187 179 163 170
74 65 69 43 71 92 68 79 76 50 186 202 207 197 211 220 216 222 187 179 214 214 206 201 198 205 211 217 218 211 206 205 209 210 200 194 202 196 191 199 201 206 200 190 181 173 191 195 192 189 189 202 199 201 191 190 195 178 193 210 198 203
89 73 103 77 67 79 68 75 76 67 78 284 228 215 222 215 194 235 224 186 220 223 215 191 191 201 203 213 226 219 210 211 213 213 209 204 206 201 196 199 194 200 200 184 179 182 195 207 198 188 190 203 206 213 205 202 210 190 198 212 202 193
99 79 81 97 87 83 82 79 80 96 89 48 15 235 246 244 219 266 279 245 234 224 220 197 187 192 199 207 221 222 216 213 213 215 222 213 204 204 201 195 188 187 191 186 186 181 190 216 207 194 195 201 206 215 216 206 207 211 210 205 198 188
99 83 71 92 98 87 90 93 92 94 93 68 59 52 330 286 219 220 286 316 266 243 232 219 204 184 197 208 204 214 220 217 213 218 234 222 198 202 201 194 191 189 189 190 186 178 185 209 219 221 214 207 202 208 223 211 204 218 221 209 203 199
98 90 78 82 90 95 84 91 103 86 88 101 98 116 47 6 264 228 235 328 344 279 267 247 237 207 198 208 202 212 225 220 215 220 236 227 202 204 201 198 199 193 193 187 174 180 192 198 217 237 234 222 205 203 220 218 214 221 223 220 212 209
100 96 94 84 82 98 86 84 99 84 91 111 114 139 92 345 352 318 250 273 335 320 308 289 273 242 227 219 205 218 240 236 226 226 232 223 208 205 197 197 199 194 193 181 169 188 210 207 217 244 253 250 219 200 208 220 224 219 225 229 216 210
107 99 97 91 86 92 82 79 87 82 90 97 97 119 71 345 340 345 343 344 322 353 336 293 301 281 251 243 221 214 220 215 216 228 229 218 212 206 194 197 202 196 188 183 185 192 207 219 221 232 245 258 246 210 201 213 223 217 226 231 219 219
116 109 103 98 96 94 91 87 85 83 83 85 77 83 81 33 308 325 360 16 49 9 5 343 314 304 281 268 257 236 227 217 189 204 215 205 205 206 203 207 203 196 188 190 198 196 206 220 225 232 233 245 255 244 211 204 215 218 222 225 221 226
127 122 116 110 107 103 107 103 95 93 86 97 88 62 67 56 32 38 21 38 50 21 14 27 17 321 319 313 290 268 251 252 232 223 221 204 205 211 216 216 200 193 197 205 213 216 215 206 210 222 222 230 245 256 240 210 210 216 220 224 221 223
140 137 134 134 131 124 127 124 124 112 87 103 104 65 38 70 78 64 28 2 2 19 26 25 36 23 340 357 317 284 263 257 246 240 240 226 211 212 217 218 207 198 197 212 227 240 247 229 229 225 211 215 224 241 251 236 220 216 219 224 218 219
153 151 146 154 161 154 145 131 118 106 84 90 96 65 44 52 51 45 58 23 336 353 20 23 37 40 22 45 7 290 277 262 255 254 253 245 227 216 220 220 217 211 205 214 226 244 269 274 274 264 214 202 211 219 235 243 233 222 223 226 219 217
161 160 167 185 188 174 152 124 100 87 83 81 70 72 95 72 30 23 49 39 355 354 354 351 19 29 32 40 26 350 331 299 273 268 260 253 247 233 230 227 223 226 223 223 227 237 258 276 288 289 231 195 207 214 220 233 235 228 227 227 224 220
168 175 192 184 155 135 112 107 100 80 73 77 64 68 94 76 32 4 7 24 45 13 341 340 356 357 353 3 11 6 344 334 312 295 275 259 253 241 235 232 227 233 236 234 235 236 244 257 279 291 245 205 215 215 217 226 228 231 231 228 227 225
170 178 187 149 131 123 108 102 98 83 66 80 73 72 86 74 67 57 15 60 85 64 15 2 4 348 340 338 341 345 326 326 322 315 309 282 262 247 238 237 232 234 238 236 238 240 241 245 259 275 266 250 238 223 223 226 222 225 231 229 225 224
170 174 169 154 151 150 146 129 114 114 96 94 90 86 99 88 71 62 25 61 75 52 15 340 341 336 335 329 329 334 327 317 311 311 315 309 285 259 245 240 236 236 240 238 236 239 238 234 245 267 283 290 247 219 221 229 226 223 226 229 223 219
170 172 168 164 161 155 154 146 127 123 107 110 119 107 99 82 58 38 15 39 112 358 337 319 313 309 313 315 318 317 311 309 306 303 301 293 288 276 259 245 237 235 238 237 233 234 231 228 234 244 265 316 257 233 216 220 222 222 222 225 223 216
173 171 170 170 172 170 164 157 148 148 156 150 134 110 96 79 61 37 20 348 302 314 310 301 295 292 302 304 306 307 304 306 302 301 301 288 276 271 265 255 241 234 232 234 237 237 235 236 235 226 223 249 283 235 275 269 237 224 221 224 224 220
174 172 175 173 175 179 171 171 184 188 190 179 134 105 97 86 76 43 11 333 311 313 290 285 285 294 302 296 302 309 306 309 306 300 299 293 288 277 261 253 249 240 234 234 237 238 236 236 232 223 223 232 236 229 277 317 302 241 219 226 228 226
174 175 177 175 175 179 178 182 194 195 189 171 126 116 121 112 100 87 26 338 328 333 289 286 284 286 296 297 297 299 298 303 304 303 301 294 292 290 278 263 254 247 239 235 233 232 231 227 221 220 225 231 237 239 245 266 279 294 240 230 234 235
176 178 177 177 178 180 182 183 185 186 183 166 135 135 151 146 120 123 125 55 10 324 285 284 296 282 288 298 298 298 299 302 304 304 304 298 292 287 282 278 270 260 246 235 230 229 227 221 213 218 224 228 234 240 244 250 261 283 312 250 234 237
177 179 178 180 180 182 186 180 178 186 187 171 155 163 173 164 148 147 149 135 93 315 286 282 286 275 280 288 293 295 288 288 297 301 301 299 297 295 290 285 282 279 262 243 232 227 225 220 214 215 217 221 229 237 245 253 259 266 272 272 259 238
179 179 179 183 183 186 188 179 180 191 187 172 171 183 175 161 167 173 165 162 166 159 177 258 262 269 277 268 273 286 284 279 278 279 283 292 297 298 299 294 284 282 280 267 248 234 230 226 222 221 217 216 222 228 235 246 252 250 252 261 269 270
182 182 182 186 187 188 187 181 185 191 189 184 181 183 177 169 176 180 174 174 182 184 188 208 229 256 266 251 260 277 286 285 285 283 277 281 294 294 293 296 289 282 280 278 270 254 240 233 229 229 225 220 220 223 224 230 237 239 240 241 249 266
184 185 184 186 188 188 186 184 188 190 189 191 187 184 188 185 179 181 186 184 188 195 204 215 214 229 240 243 260 270 280 284 291 296 284 274 280 283 281 281 283 286 285 279 276 268 248 235 231 231 230 227 225 226 226 229 233 236 235 231 233 251
187 185 183 186 188 188 187 187 189 189 188 189 189 189 192 190 185 188 193 189 194 204 211 221 218 222 235 246 260 267 275 279 278 282 281 276 273 272 272 271 273 281 285 284 281 276 263 246 237 233 231 231 230 229 228 228 229 229 228 225 226 239
188 186 184 186 187 189 191 191 191 189 189 189 190 191 192 194 191 191 196 195 198 207 218 230 232 237 243 245 252 258 268 276 277 277 276 276 275 275 274 272 270 272 274 277 279 278 274 265 253 242 235 231 231 232 231 229 226 223 224 224 224 231
188 186 185 185 186 190 192 194 194 191 191 191 191 192 194 197 196 193 197 201 203 211 220 231 238 243 245 246 253 263 273 278 279 281 280 279 278 279 279 275 271 270 271 272 272 274 274 270 266 257 246 240 236 235 234 231 227 224 226 229 231 233
188 185 185 185 186 191 193 194 196 194 194 192 192 194 196 199 199 196 198 201 208 217 222 231 240 245 248 251 258 267 275 277 278 280 283 284 282 280 281 280 277 274 272 271 271 271 270 269 268 264 258 251 243 239 237 233 231 229 230 233 235 237
189 184 184 186 188 190 192 194 195 196 196 195 193 194 197 199 196 196 202 205 210 218 225 234 241 247 252 256 263 269 272 274 276 281 283 284 284 282 282 282 281 279 274 272 273 272 272 270 268 264 261 256 247 242 241 237 235 233 232 233 234 236